sat.trackr.live / text

‹ back to catalog

STARLINK-4569

NORAD 53687 · 2022-105AR

PAYLOAD ACTIVE UNKNOWN

§ Identity

Operator
Country
US
Launch date
2022-08-31
Launch site
AFWTR
Launch vehicle
Mass (kg)
RCS (m²)

Purposes: comms

External: N2YO · Heavens-Above · Gunter

§ Orbital elements

Epoch: 2026-09-20T23:13:22.361088Z

Period
93.91 min
Inclination
97.2845°
Eccentricity
0.0001828
Mean motion
15.33437001 rev/d
Perigee alt
464.3 km
Apogee alt
466.8 km
Semi-major
6,843.7 km
B*
2.7778e-5
RAAN
140.6823°
Arg perigee
88.8508°
Mean anomaly
271.2944°
Rev number
22,281

§ Raw data

STARLINK-45691 53687U 22105AR  26263.96761992  .00000822  00000+0  27778-4 0  99932 53687  97.2845 140.6823 0001828  88.8508 271.2944 15.33437001222817

JSON: /api/v1/satellites/53687 · /tle

For live sub-satellite position, see the globe view (requires WebGL).

§ Visibility from observer

Set your observer location to see the next 7 days of passes ≥ 10°. The values pass through the URL so the page stays shareable.

No JS? Fill the form by hand. The geolocation button needs JavaScript.